This is the latest recevied weather packets stored in our database for station/object KY0TEQ-13. If no packets are shown the sender has not sent any weather packets the latest 10 day(s).
| Time | Temp. | Humidity | Pressure | Rain* | Wind** | Luminosity | Snow |
|---|---|---|---|---|---|---|---|
| 1788604383 | 13.33° C | 61% | 1309 hPa | 0 mm | - | 0 W/m² | - |
| 1788604076 | 12.78° C | 62% | 1309 hPa | 0 mm | - | 0 W/m² | - |
| 1788603773 | 12.78° C | 61% | 1309 hPa | 0 mm | - | 0 W/m² | - |
| 1788603472 | 12.78° C | 62% | 1308.9 hPa | 0 mm | - | 0 W/m² | - |
| 1788603171 | 12.78° C | 61% | 1309.1 hPa | 0 mm | - | 0 W/m² | - |
| 1788602866 | 13.33° C | 61% | 1308.8 hPa | 0 mm | - | 0 W/m² | - |
| 1788602562 | 13.33° C | 59% | 1308.9 hPa | 0 mm | - | 0 W/m² | - |
| 1788602256 | 13.33° C | 60% | 1308.8 hPa | 0 mm | - | 0 W/m² | - |
| 1788601955 | 12.78° C | 61% | 1308.9 hPa | 0 mm | - | 0 W/m² | - |
| 1788601650 | 12.22° C | 65% | 1308.6 hPa | 0 mm | - | 0 W/m² | - |
| 1788601345 | 11.67° C | 66% | 1308.8 hPa | 0 mm | - | 0 W/m² | - |
| 1788601044 | 11.67° C | 66% | 1308.8 hPa | 0 mm | - | 0 W/m² | - |
| 1788600740 | 12.22° C | 64% | 1308.5 hPa | 0 mm | - | 0 W/m² | - |
| 1788600436 | 13.33° C | 60% | 1308.8 hPa | 0 mm | - | 0 W/m² | - |
| 1788600131 | 13.33° C | 60% | 1308.8 hPa | 0 mm | - | 0 W/m² | - |
| 1788599830 | 13.89° C | 59% | 1308.6 hPa | 0 mm | - | 0 W/m² | - |
| 1788599526 | 14.44° C | 57% | 1308.9 hPa | 0 mm | - | 0 W/m² | - |
| 1788599225 | 14.44° C | 57% | 1308.8 hPa | 0 mm | - | 0 W/m² | - |
| 1788598921 | 14.44° C | 57% | 1308.6 hPa | 0 mm | - | 0 W/m² | - |
| 1788598619 | 14.44° C | 57% | 1309 hPa | 0 mm | - | 0 W/m² | - |
| 1788598315 | 14.44° C | 57% | 1308.9 hPa | 0 mm | - | 0 W/m² | - |
| 1788598009 | 13.89° C | 58% | 1308.8 hPa | 0 mm | - | 0 W/m² | - |
| 1788597704 | 13.89° C | 59% | 1308.9 hPa | 0 mm | - | 0 W/m² | - |
| 1788597404 | 13.33° C | 59% | 1309 hPa | 0 mm | - | 0 W/m² | - |
| 1788597100 | 12.78° C | 62% | 1308.9 hPa | 0 mm | - | 0 W/m² | - |
* Rain latest hour (hover to see other rain measurements)
** Current wind speed in m/s (hover to see current wind gust speed)